Date,TemperatureHighF,TemperatureAvgF,TemperatureLowF,DewpointHighF,DewpointAvgF,DewpointLowF,HumidityHigh,HumidityAvg,HumidityLow,PressureMaxIn,PressureMinIn,WindSpeedMaxMPH,WindSpeedAvgMPH,GustSpeedMaxMPH,PrecipitationSumIn
2013-11-1,56.1,48.8,43.7,44.9,42.2,39.3,96,79,57,29.83,29.58,7,3,17,0.00
2013-11-2,55.0,45.8,37.8,41.3,36.9,31.6,90,73,43,30.17,29.82,4,2,14,0.00
2013-11-3,59.4,45.0,32.2,38.1,33.2,28.5,89,66,36,30.29,30.14,2,0,9,0.00
2013-11-4,58.5,51.2,46.2,45.0,40.5,35.9,76,67,58,30.20,30.08,7,2,15,0.00
2013-11-5,57.7,54.3,51.4,52.9,49.8,45.0,95,85,76,30.25,29.96,4,1,14,0.16
2013-11-6,58.1,46.5,34.5,57.3,43.5,29.3,98,89,77,30.26,29.87,6,3,15,0.44
2013-11-7,54.5,39.4,29.8,38.0,30.3,26.3,88,72,39,30.34,30.25,9,2,15,0.00
2013-11-8,54.0,43.2,29.7,36.4,31.4,25.8,87,65,41,30.35,30.02,6,2,17,0.00
2013-11-9,68.2,54.0,45.9,41.5,36.7,29.6,72,54,26,30.24,29.99,8,4,17,0.00
2013-11-10,53.1,43.1,36.0,35.9,30.9,27.5,77,62,41,30.43,30.25,4,1,10,0.00
2013-11-11,59.0,44.3,28.6,46.5,35.9,22.6,94,73,59,30.53,30.12,7,3,14,0.35
2013-11-12,35.1,25.9,19.6,21.8,14.8,12.3,76,63,42,30.77,30.53,4,2,12,0.05
2013-11-13,45.5,30.8,19.4,18.3,14.1,8.6,75,53,22,30.67,30.24,8,2,16,0.00
2013-11-14,56.3,41.6,28.9,27.5,19.0,13.8,61,42,20,30.24,30.00,10,3,20,0.00
2013-11-15,57.7,45.5,39.2,41.7,33.5,26.3,84,64,39,30.04,29.90,5,2,11,0.00
2013-11-16,61.9,55.9,46.2,56.4,51.2,42.0,90,84,74,29.90,29.59,9,3,21,0.00
2013-11-17,72.3,60.2,44.2,65.3,51.7,39.7,92,75,44,29.94,29.30,18,5,42,0.12
2013-11-18,53.4,43.5,34.9,40.0,32.0,24.1,87,66,36,30.30,29.94,7,2,16,0.00
2013-11-19,49.1,37.4,30.0,29.2,26.5,23.9,79,66,40,30.36,30.21,2,1,7,0.00
2013-11-20,44.6,38.1,33.4,39.6,32.4,26.3,92,80,68,30.22,30.02,3,2,8,0.25
2013-11-21,50.9,47.9,44.1,48.4,44.6,39.6,97,89,77,30.23,30.06,4,1,11,0.18
2013-11-22,43.9,35.7,27.3,42.8,32.0,22.9,97,86,75,30.53,30.22,6,3,14,0.14
2013-11-23,27.5,23.0,14.9,22.7,11.5,4.1,83,62,41,30.73,30.52,7,4,17,0.00
2013-11-24,30.4,19.4,10.4,10.0,5.9,1.8,74,57,30,30.76,30.41,4,1,8,0.00
2013-11-25,33.8,30.0,24.6,18.8,14.7,9.6,60,53,43,30.41,30.14,7,3,15,0.00
2013-11-26,36.9,28.7,19.9,25.6,15.7,4.4,75,58,42,30.26,30.08,8,3,17,0.00
2013-11-27,30.6,20.5,13.6,7.7,3.4,-1.0,61,48,28,30.35,30.23,5,2,14,0.00
2013-11-28,43.2,29.0,19.9,22.1,14.3,7.4,64,54,42,30.51,30.19,9,3,18,0.00
2013-11-29,43.0,30.4,19.4,23.5,18.2,11.6,73,61,44,30.60,30.35,4,1,9,0.00
2013-11-30,55.9,40.8,30.4,37.4,30.6,23.5,82,68,48,30.36,30.08,6,2,14,0.00